TimeCST,TemperatureF,Dew PointF,Humidity,Sea Level PressureIn,VisibilityMPH,Wind Direction,Wind SpeedMPH,Gust SpeedMPH,PrecipitationIn,Events,Conditions,WindDirDegrees,DateUTC
12:03 AM,24.8,17.6,74,29.63,10.0,SSE,9.2,-,N/A,,Overcast,150,2012-12-18 06:03:00
12:17 AM,24.8,17.6,74,29.62,10.0,SSE,9.2,-,N/A,,Overcast,150,2012-12-18 06:17:00
12:53 AM,24.1,18.0,77,29.67,9.0,SE,6.9,-,N/A,,Overcast,140,2012-12-18 06:53:00
1:29 AM,24.8,19.4,80,29.62,9.0,SE,4.6,-,N/A,,Overcast,140,2012-12-18 07:29:00
1:49 AM,24.8,19.4,80,29.62,9.0,SSE,4.6,-,N/A,,Overcast,150,2012-12-18 07:49:00
1:53 AM,24.1,19.0,81,29.66,9.0,SSE,6.9,-,N/A,,Overcast,150,2012-12-18 07:53:00
2:53 AM,24.1,19.0,81,29.66,8.0,SE,5.8,-,N/A,,Overcast,130,2012-12-18 08:53:00
3:53 AM,24.1,19.0,81,29.67,8.0,SSE,5.8,-,N/A,,Overcast,150,2012-12-18 09:53:00
4:07 AM,24.8,19.4,80,29.62,7.0,SSE,4.6,-,N/A,,Overcast,150,2012-12-18 10:07:00
4:53 AM,24.1,19.0,81,29.67,7.0,SE,3.5,-,N/A,,Overcast,140,2012-12-18 10:53:00
5:12 AM,24.8,19.4,80,29.62,7.0,SE,4.6,-,N/A,,Overcast,130,2012-12-18 11:12:00
5:53 AM,24.1,19.0,81,29.66,7.0,ESE,5.8,-,N/A,,Overcast,120,2012-12-18 11:53:00
6:53 AM,25.0,19.0,78,29.67,7.0,ESE,4.6,-,N/A,,Overcast,120,2012-12-18 12:53:00
7:53 AM,25.0,19.9,81,29.67,7.0,SE,3.5,-,N/A,,Overcast,130,2012-12-18 13:53:00
8:53 AM,25.0,21.0,85,29.68,3.0,ESE,3.5,-,N/A,,Overcast,120,2012-12-18 14:53:00
9:16 AM,24.8,21.2,86,29.64,2.5,ESE,4.6,-,N/A,,Overcast,120,2012-12-18 15:16:00
9:39 AM,24.8,21.2,86,29.64,3.0,ESE,5.8,-,N/A,,Overcast,120,2012-12-18 15:39:00
9:49 AM,24.8,21.2,86,29.64,2.5,ESE,6.9,-,N/A,,Overcast,120,2012-12-18 15:49:00
9:53 AM,25.0,21.0,85,29.69,2.5,ESE,6.9,-,N/A,,Overcast,120,2012-12-18 15:53:00
10:20 AM,24.8,21.2,86,29.65,3.0,SE,5.8,-,N/A,,Overcast,130,2012-12-18 16:20:00
10:53 AM,26.1,21.9,84,29.70,3.0,SE,5.8,-,N/A,,Overcast,140,2012-12-18 16:53:00
11:15 AM,26.6,21.2,80,29.65,2.5,SE,6.9,-,N/A,,Overcast,140,2012-12-18 17:15:00
11:53 AM,27.0,23.0,85,29.69,2.5,SSE,5.8,-,N/A,,Overcast,150,2012-12-18 17:53:00
12:38 PM,26.6,24.8,93,29.65,1.8,South,6.9,-,N/A,,Overcast,170,2012-12-18 18:38:00
12:45 PM,26.6,24.8,93,29.65,2.0,South,8.1,-,N/A,,Overcast,180,2012-12-18 18:45:00
12:53 PM,27.0,24.1,89,29.69,1.8,South,9.2,-,N/A,,Overcast,180,2012-12-18 18:53:00
1:08 PM,26.6,24.8,93,29.64,2.0,South,9.2,-,N/A,,Overcast,180,2012-12-18 19:08:00
1:33 PM,28.4,24.8,86,29.64,3.0,South,10.4,-,N/A,,Overcast,180,2012-12-18 19:33:00
1:53 PM,28.0,24.1,85,29.68,3.0,South,11.5,-,N/A,,Overcast,180,2012-12-18 19:53:00
2:19 PM,28.4,24.8,86,29.64,2.5,South,8.1,-,N/A,,Overcast,170,2012-12-18 20:19:00
2:31 PM,28.4,24.8,86,29.64,3.0,South,6.9,-,N/A,,Overcast,180,2012-12-18 20:31:00
2:53 PM,28.0,23.0,81,29.68,4.0,South,6.9,-,N/A,,Haze,180,2012-12-18 20:53:00
3:53 PM,28.0,23.0,81,29.69,5.0,South,9.2,-,N/A,,Haze,180,2012-12-18 21:53:00
4:04 PM,28.4,24.8,86,29.65,1.0,South,9.2,-,0.00,Snow,Light Snow,190,2012-12-18 22:04:00
4:22 PM,28.4,24.8,86,29.65,0.8,South,6.9,-,0.00,Snow,Light Snow,180,2012-12-18 22:22:00
4:27 PM,28.4,24.8,86,29.65,1.0,South,5.8,-,0.01,Snow,Light Snow,180,2012-12-18 22:27:00
4:53 PM,28.0,24.1,85,29.70,2.0,South,4.6,-,0.01,Snow,Light Snow,180,2012-12-18 22:53:00
5:31 PM,28.4,24.8,86,29.66,3.0,South,5.8,-,0.01,Snow,Light Snow,180,2012-12-18 23:31:00
5:53 PM,28.0,24.1,85,29.71,3.0,South,6.9,-,0.02,Snow,Light Snow,180,2012-12-18 23:53:00
6:02 PM,28.4,24.8,86,29.67,2.5,South,6.9,-,0.00,Snow,Light Snow,180,2012-12-19 00:02:00
6:09 PM,28.4,24.8,86,29.67,4.0,South,8.1,-,0.00,Snow,Light Snow,170,2012-12-19 00:09:00
6:19 PM,28.4,24.8,86,29.67,4.0,South,5.8,-,0.00,Snow,Light Snow,170,2012-12-19 00:19:00
6:43 PM,28.4,24.8,86,29.68,4.0,South,5.8,-,0.00,Snow,Light Snow,180,2012-12-19 00:43:00
6:53 PM,28.0,24.1,85,29.72,2.5,South,6.9,-,0.00,Snow,Light Snow,180,2012-12-19 00:53:00
7:32 PM,28.4,24.8,86,29.68,1.8,South,4.6,-,0.01,Snow,Light Snow,170,2012-12-19 01:32:00
7:43 PM,28.4,24.8,86,29.69,2.5,South,6.9,-,0.01,Snow,Light Snow,180,2012-12-19 01:43:00
7:50 PM,28.4,24.8,86,29.69,3.0,South,6.9,-,0.01,Snow,Light Snow,180,2012-12-19 01:50:00
7:53 PM,28.0,24.1,85,29.73,3.0,South,6.9,-,0.01,Snow,Light Snow,180,2012-12-19 01:53:00
8:00 PM,28.4,24.8,86,29.69,2.5,South,6.9,-,0.00,Snow,Light Snow,170,2012-12-19 02:00:00
8:32 PM,28.4,24.8,86,29.69,4.0,SSE,8.1,-,0.01,,Overcast,160,2012-12-19 02:32:00
8:53 PM,28.0,25.0,88,29.73,4.0,SSE,8.1,-,0.01,,Overcast,160,2012-12-19 02:53:00
9:53 PM,28.9,25.0,85,29.73,4.0,South,6.9,-,N/A,,Overcast,170,2012-12-19 03:53:00
10:16 PM,28.4,24.8,86,29.69,4.0,South,6.9,-,N/A,,Overcast,170,2012-12-19 04:16:00
10:53 PM,28.9,26.1,89,29.74,4.0,South,6.9,-,N/A,,Overcast,180,2012-12-19 04:53:00
11:53 PM,28.9,25.0,85,29.74,5.0,South,4.6,-,N/A,,Overcast,170,2012-12-19 05:53:00